Location: D.A.R.C. Observatory
(36.7133°N, 120.8553°W)
Time: 04:01:13
(UTC-07:00)

Daily predictions for brighter satellites

Satellite Brightness Start Highest point End
(mag) Time Altitude Azimuth Time Altitude Azimuth Time Altitude Azimuth
Cosmos 2082 Rocket 4.4 00:02:52 10° WSW 00:06:59 20° NW 00:11:07 10° N
Cosmos 2251 Rocket 4.5 00:09:29 42° NE 00:09:29 42° NE 00:13:07 10° NNE
CZ-2C R/B 3.4 00:07:48 10° NNE 00:12:02 47° NE 00:12:02 47° NE
SeaSat 1 3.4 00:19:51 43° NNE 00:19:51 43° NNE 00:23:38 10° NNW
Terra 4.1 00:21:22 15° W 00:21:22 15° W 00:23:24 10° NW
USA 267 3.6 00:16:45 10° NE 00:23:11 62° NW 00:25:23 41° W
Cosmos 1697 Rocket 4.4 00:26:56 10° NW 00:30:07 21° W 00:30:07 21° W
NOSS 3-1 (C) 4.2 00:25:34 10° NNW 00:33:15 67° NE 00:34:45 57° ESE
Cosmos 1934 Rocket 4.1 00:29:51 10° N 00:35:40 71° NW 00:35:40 71° NW
SL-16 R/B 2.7 00:30:45 10° NNW 00:35:24 58° N 00:35:24 58° N
Lacrosse 5 3.3 00:40:43 33° NE 00:40:43 33° NE 00:43:30 10° NE
Meteor 2-5 Rocket 4.2 00:56:18 61° NNW 00:56:18 61° NNW 01:01:25 10° N
USA 234 4.3 00:52:05 23° E 00:55:43 41° NE 01:01:46 10° NNW
Lacrosse 5 rocket 3.3 00:58:37 10° NNW 01:01:39 31° N 01:01:39 31° N
NOSS 3-1 (A) 4.1 00:57:50 10° NNW 01:05:37 79° ENE 01:06:48 67° ESE
CZ-2C R/B 4.3 01:10:34 37° WNW 01:10:34 37° WNW 01:14:25 10° NNW
COSMOS 2428 4.3 01:10:27 10° N 01:15:18 27° ENE 01:16:27 25° ENE
Cosmos 2360 Rocket 2.7 01:12:46 10° NNW 01:17:33 56° NNE 01:17:33 56° NNE
Cosmos 1980 Rocket 4.5 01:15:50 10° WNW 01:16:59 13° WNW 01:16:59 13° WNW
ATLAS CENTAUR R/B 4.3 01:15:34 10° NW 01:15:34 10° NW 01:15:34 10° NW
Cosmos 1727 Rocket 4.4 01:20:50 52° WNW 01:20:50 52° WNW 01:26:24 10° N
Cosmos 2322 Rocket 3.6 01:24:08 10° NW 01:27:23 29° WNW 01:27:23 29° WNW
H-2A R/B 4.2 01:39:18 10° NNE 01:41:40 33° NNE 01:41:40 33° NNE
Cosmos 2333 Rocket 4.1 01:43:25 10° N 01:47:58 24° ENE 01:50:57 16° E
Cosmos 2173 Rocket 4.1 01:44:53 10° N 01:50:15 66° NW 01:50:15 66° NW
Cosmos 2297 Rocket 4.0 01:56:55 19° E 01:56:55 19° E 02:00:41 10° NE
Cosmos 2219 Rocket 3.4 01:57:31 10° N 02:02:47 37° ENE 02:04:22 31° E
ISS -0.2 02:11:30 10° N 02:12:29 11° NNE 02:13:28 10° NE
Cosmos 1726 4.3 02:14:12 10° N 02:16:04 26° NNE 02:16:04 26° NNE
Cosmos 2237 Rocket 3.9 02:14:43 10° N 02:19:36 29° ENE 02:23:26 14° ESE
Lacrosse 5 4.2 02:19:52 14° WNW 02:22:04 18° NNW 02:25:27 10° NNE
Cosmos 1864 Rocket 4.3 02:16:27 10° N 02:22:45 84° W 02:22:56 82° SW
NPP 4.2 02:19:35 10° NNE 02:24:47 47° E 02:24:51 47° ESE
SL-8 R/B 4.5 02:27:36 47° NNW 02:27:36 47° NNW 02:31:57 10° NE
SL-16 R/B 4.1 02:26:03 11° ESE 02:30:58 29° ENE 02:36:10 10° N
Cosmos 2227 Rocket 2.5 02:33:48 56° ESE 02:33:55 56° ESE 02:39:27 10° NNE
USA 234 3.4 02:39:22 52° WSW 02:39:22 52° WSW 02:44:58 10° NW
Aureole 2 Rocket 4.5 02:36:22 10° N 02:39:58 30° ENE 02:40:29 29° E
Cosmos 1140 Rocket 3.5 02:41:38 71° E 02:41:38 71° E 02:46:44 10° NNE
Cosmos 614 Rocket 4.3 02:42:51 57° ESE 02:42:55 57° ESE 02:48:03 10° NNE
SL-08 R/B 3.8 02:45:31 55° ESE 02:46:07 59° ENE 02:51:00 10° N
Cosmos 2151 3.6 02:47:03 53° NE 02:47:03 53° NE 02:50:29 10° NNE
Meteor 2-10 3.9 02:43:07 10° N 02:48:15 81° E 02:48:27 79° ESE
NOSS 2-1 (D) 4.2 02:51:12 47° NE 02:51:12 47° NE 02:54:13 10° NNE
NOSS 2-1 (C) 4.2 02:51:22 46° NE 02:51:22 46° NE 02:54:21 10° NNE
Cosmos 1328 Rocket 4.3 02:47:53 10° NNW 02:51:07 45° NW 02:51:07 45° NW
Resurs 1-4 Rocket 3.2 02:48:08 10° NNE 02:53:02 36° E 02:54:22 32° SE
Cosmos 2219 4.3 02:54:56 29° WNW 02:55:31 30° WNW 03:00:25 10° N
ADEOS Rocket 3.9 02:48:45 10° NNE 02:56:10 58° E 02:59:38 34° SSE
ATLAS 2AS CENTAUR R/B 2.8 02:48:47 10° NNW 02:56:47 85° WSW 03:01:00 29° SSE
AQUA 3.8 02:52:16 10° NNE 02:57:03 77° ESE 02:57:04 77° ESE
Cosmos 2228 Rocket 3.8 02:53:19 10° NNW 02:56:43 46° NW 02:56:43 46° NW
COSMOS 2428 3.6 02:54:20 10° NW 02:58:26 35° WNW 02:58:26 35° WNW
Cosmos 1151 Rocket 3.2 02:55:58 10° N 02:59:54 71° NNE 02:59:54 71° NNE
Meteor 2-2 Rocket 4.3 02:55:03 10° NNW 03:00:30 56° W 03:00:30 56° W
Cosmos 1455 3.9 02:58:06 10° NNE 03:01:28 28° ENE 03:02:20 25° ESE
NOSS 3-3 (A) 4.3 03:00:10 46° W 03:01:30 55° NW 03:07:59 10° NNE
NOSS 3-3 (C) 4.3 03:00:15 47° W 03:01:36 56° NW 03:08:05 10° NNE
Cosmos 2360 Rocket 4.4 02:58:37 10° WNW 02:59:18 12° WNW 02:59:18 12° WNW
Cosmos 2082 3.5 03:03:00 69° S 03:03:44 86° ESE 03:09:23 10° NNE
CZ-2D R/B 2.7 03:02:56 10° NNE 03:08:00 50° E 03:09:26 39° SE
Meteor 1-11 4.1 03:07:22 64° SW 03:08:13 78° W 03:13:58 10° N
CBERS-1 3.9 03:04:27 10° N 03:09:33 71° WNW 03:10:00 67° WSW
Cosmos 1954 Rocket 4.4 03:11:25 46° W 03:11:47 47° WNW 03:16:52 10° N
Meteor 1-27 4.2 03:05:58 10° N 03:11:49 88° E 03:13:36 47° S
NOSS 2-1 (E) 3.7 03:13:33 55° NNW 03:13:33 55° NNW 03:17:16 10° NNE
Cosmos 2233 Rocket 4.3 03:10:57 10° NNW 03:16:58 48° W 03:17:51 45° WSW
ARIANE 5 R/B 2.9 03:12:44 10° NNE 03:17:45 57° E 03:19:11 42° SSE
GPS 2-04 Rocket1 3.6 03:20:18 41° ESE 03:20:18 41° ESE 03:23:10 10° ESE
Cosmos 1703 3.4 03:20:33 65° NNW 03:20:33 65° NNW 03:24:02 10° N
Cosmos 1626 2.5 03:24:32 55° NNW 03:24:32 55° NNW 03:27:40 10° N
IRS-1C 4.1 03:18:48 10° N 03:24:06 68° WNW 03:25:12 53° SW
Cosmos 1072 Rocket 4.4 03:20:53 10° N 03:27:03 86° W 03:29:51 35° S
ERS-1 4.4 03:25:17 10° NNE 03:30:26 85° WNW 03:31:50 50° SSW
Cosmos 1666 Rocket 4.2 03:30:27 34° SE 03:31:58 50° E 03:36:16 10° NNE
Cosmos 2333 Rocket 2.4 03:27:00 10° NW 03:32:25 46° WSW 03:32:53 45° WSW
CZ-3B DEB 4.5 03:28:00 30° SSW 03:36:36 77° SE 03:51:05 10° NE
Cosmos 2058 3.8 03:37:40 33° WNW 03:37:40 33° WNW 03:41:06 10° NNW
Cosmos 2297 Rocket 2.6 03:38:44 39° WSW 03:40:20 50° WNW 03:45:51 10° N
UNKNOWN OBJECT B 3.5 03:38:42 10° NNE 03:42:36 48° E 03:44:01 32° SSE
Cosmos 1980 3.9 03:39:10 10° NNW 03:44:37 48° WSW 03:46:07 38° SSW
Cosmos 2219 Rocket 3.2 03:41:49 10° NW 03:46:02 27° W 03:46:02 27° W
Cosmos 1464 Rocket 3.9 03:42:01 10° NNW 03:48:05 63° W 03:51:06 30° SSW
Cosmos 1805 Rocket 3.6 03:47:45 49° SW 03:48:44 65° W 03:53:09 10° N
NOSS 0 Rocket 4.4 03:43:24 10° NW 03:49:03 37° WSW 03:50:18 34° SW
ISS -3.1 03:46:21 10° NW 03:49:35 54° NE 03:52:47 10° ESE
ATLAS 3B CENTAUR R/B 3.5 03:34:33 10° W 03:49:51 49° SSW 03:55:32 10° ESE
BREEZE-M DEB 3.5 03:50:23 29° W 03:52:00 43° NW 03:54:26 10° NE
COBE Rocket 4.0 03:47:31 10° N 03:52:03 52° WNW 03:53:18 40° WSW
Spot 4 Rocket 4.3 03:47:09 10° N 03:52:08 52° WNW 03:53:52 36° SW
Cosmos 1241 Rocket 4.4 03:49:53 10° NNW 03:56:22 85° WSW 04:02:37 10° SSE
DELTA 2 R/B (1) 3.5 03:55:02 29° WSW 03:57:59 84° NNW 04:03:34 10° ENE
Cosmos 2208 Rocket 3.9 03:53:04 10° NNW 03:58:14 70° WSW 04:02:13 17° S
USA 102 3.9 03:55:33 10° NNE 03:58:54 47° ESE 03:59:04 46° ESE
APEX 4.5 03:55:56 32° SSW 03:58:59 77° WNW 04:06:11 10° NNE
Cosmos 2237 Rocket 2.8 03:58:35 10° NW 04:03:38 35° WSW 04:05:10 30° SW
SL-16 R/B 2.1 03:58:21 10° NNW 04:04:05 89° SW 04:09:44 10° SSE
Okean O Rocket 3.9 04:01:21 10° NE 04:04:32 20° E 04:07:41 10° SE
Cosmos 468 Rocket 4.4 04:01:10 10° N 04:06:19 62° ENE 04:11:23 10° SSE
Lacrosse 4 Rocket 1.3 04:05:12 38° SSW 04:06:44 85° WNW 04:10:56 10° NNE
IRS-1D 4.2 04:02:57 10° N 04:07:58 42° WNW 04:10:16 27° WSW
ATLAS 5 CENTAUR R/B 3.9 04:07:55 10° SSE 04:11:15 20° ESE 04:14:42 10° ENE
SL-16 R/B 3.0 04:11:08 23° SSW 04:14:22 40° W 04:20:08 10° NNW
Cosmos 1470 Rocket 3.9 04:12:58 15° S 04:16:25 64° E 04:20:42 10° NNE
Cosmos 1633 Rocket 3.2 04:15:39 28° SSW 04:17:44 56° W 04:22:02 10° N
Cosmos 2227 Rocket 3.9 04:15:37 15° W 04:18:20 20° NW 04:22:24 10° N
MOZ.5/SAFIR/RUBIN 5/SL-8 3.7 04:15:33 11° S 04:20:10 73° WSW 04:24:57 10° NNW
Sich 1 3.5 04:18:35 28° SW 04:20:25 43° W 04:24:36 10° N
CZ-2D R/B 3.6 04:20:48 10° N 04:24:46 57° WNW 04:27:08 23° SW
Cosmos 1400 Rocket 3.8 04:24:23 10° SSE 04:28:05 45° E 04:31:51 10° NNE
Cosmos 1814 Rocket 4.3 04:23:19 10° NNW 04:28:40 72° ENE 04:34:00 10° SSE
Cosmos 1763 Rocket 4.3 04:25:05 10° N 04:30:14 54° ENE 04:35:15 10° SSE
Cosmos 1892 4.4 04:29:14 10° SSE 04:32:36 31° E 04:36:00 10° NNE
Resurs 1-4 Rocket 3.4 04:28:21 10° NNW 04:32:37 25° WNW 04:35:28 16° WSW
Cosmos 1455 4.0 04:34:32 10° NW 04:36:53 16° W 04:37:18 15° W
CZ-3 R/B 3.9 03:54:01 10° W 04:39:40 64° SSW 04:49:19 10° ESE
Cosmos 2263 Rocket 3.6 04:35:53 10° SSE 04:40:52 35° ESE 04:45:52 10° NE
ADEOS II 2.5 04:37:37 10° NNE 04:42:51 63° E 04:48:02 10° S
ATLAS 2AS CENTAUR R/B 4.3 04:42:45 10° WNW 04:46:29 14° WSW 04:48:17 13° WSW
MOS 1-B 4.4 04:40:43 10° N 04:46:29 72° WNW 04:52:13 10° SSW
CZ-2D R/B 3.7 04:44:09 10° NNW 04:47:39 19° WNW 04:50:47 11° WSW
Cosmos 220 Rocket 4.0 04:44:11 13° SSW 04:48:09 77° WNW 04:52:37 10° NNE
NOSS 3-4 (A) 3.8 04:41:08 10° NW 04:48:16 75° WSW 04:55:50 10° SSE
CZ-4B R/B 3.4 04:43:55 10° NNE 04:48:18 68° E 04:52:28 10° S
NOSS 3-4 (C) 3.8 04:41:14 10° NW 04:48:22 76° WSW 04:55:57 10° SSE
PSLV R/B 4.2 04:45:49 10° NNE 04:49:57 54° E 04:54:03 10° S
Cosmos 371 Rocket 3.3 04:45:26 10° NNW 04:50:15 89° NE 04:55:04 10° SSE
OAO 3 Rocket 4.2 04:46:45 15° SW 04:50:22 36° SSE 04:54:51 10° E
In-Cosmos 22 Rocket 4.0 04:45:32 10° S 04:50:52 80° W 04:56:12 10° N
Landsat 4 3.7 04:49:54 10° SSE 04:53:41 84° WSW 04:57:31 10° NNW
Cosmos 2242 Rocket 4.1 04:51:29 10° NNW 04:55:40 39° W 04:59:52 10° SSW
USA 215 4.2 04:49:58 10° ENE 04:56:04 40° SE 05:02:07 10° SSW
ARIANE 5 R/B 4.3 04:53:27 10° NNW 04:56:20 15° WNW 04:59:13 10° W
GPS 2-04 Rocket1 3.6 04:54:52 10° W 04:58:35 32° SSW 05:02:25 10° SE
Meteosat 1 Rocket2 4.3 04:56:21 12° SW 04:58:54 20° S 05:01:40 10° ESE
Meteor 2-10 Rocket 3.4 04:59:49 10° NNW 05:04:47 67° W 05:09:48 10° S
Cosmos 1867 4.0 05:03:14 10° SSW 05:08:36 66° ESE 05:14:01 10° NE
PSLV R/B 4.1 05:05:21 10° N 05:09:15 50° WNW 05:13:03 10° SSW
BREEZE-M R/B 3.6 05:09:00 10° WSW 05:15:29 54° NW 05:18:50 10° NE
Cosmos 1862 Rocket 4.2 05:12:31 10° NNW 05:16:28 35° W 05:20:22 10° SSW
Cosmos 540 Rocket 4.3 05:16:17 10° N 05:21:24 57° ENE 05:26:28 10° SSE
